Weather reports worldwide

Advertisment
Marham, United Kingdom (3482): temperature & dewpoint: 24.09.2020 23:00:00 - 30.09.2020 23:00:00 (BST)Marham, United Kingdom (3482): temperature -20cm & temperature -100cm: 24.09.2020 23:00:00 - 30.09.2020 23:00:00 (BST)Marham, United Kingdom (3482): wind speed & gusts: 24.09.2020 23:00:00 - 30.09.2020 23:00:00 (BST)Marham, United Kingdom (3482): wind direction: 24.09.2020 23:00:00 - 30.09.2020 23:00:00 (BST)Marham, United Kingdom (3482): reduced air pressure: 24.09.2020 23:00:00 - 30.09.2020 23:00:00 (BST)Marham, United Kingdom (3482): visibility: 24.09.2020 23:00:00 - 30.09.2020 23:00:00 (BST)Marham, United Kingdom (3482): precipitation: 24.09.2020 23:00:00 - 30.09.2020 23:00:00 (BST)
Date & Time tt [°C] td [°C] tt -20cm [°C] tt -100cm [°C] ff [km/h] ff [kn] fx [km/h] fx [kn] dd ppp [hPa] vv [km] rr [mm]
30.09.2020 23:00:00 - - - - - - - - - - - -
30.09.2020 22:00:00 14,2 13,6 - - 18 10 - - SSE 1001,0 10 1,4
30.09.2020 21:00:00 14,2 13,4 - - 21 11 - - SSE 1001,5 11 1,2
30.09.2020 20:00:00 14,4 13,3 - - 22 12 - - S 1002,1 10 0,4
30.09.2020 19:00:00 14,4 12,5 - - 22 12 - - S 1002,7 10 0,0
30.09.2020 18:00:00 14,9 12,2 - - 34 18 46 25 SSE 1003,0 10 0,4
30.09.2020 17:00:00 15,8 12,4 - - 22 12 - - SSE 1003,6 10 0,0
30.09.2020 16:00:00 16,3 12,2 - - 21 11 - - S 1004,4 10 0,0
30.09.2020 15:00:00 16,7 12,1 - - 22 12 - - S 1005,3 20 0,0
30.09.2020 14:00:00 16,2 12,0 - - 26 14 - - S 1006,0 10 0,0
30.09.2020 13:00:00 15,8 11,0 - - 29 16 - - S 1007,1 10 0,0
30.09.2020 12:00:00 15,2 11,3 - - 24 13 - - S 1007,6 10 0,0
30.09.2020 11:00:00 13,8 10,9 - - 21 11 - - SSE 1008,5 10 0,0
30.09.2020 10:00:00 13,4 11,4 - - 18 10 - - S 1009,4 10 0,0
30.09.2020 09:00:00 11,2 10,8 - - 16 9 - - S 1010,3 6 0,0
30.09.2020 08:00:00 10,5 10,4 - - 11 6 - - SSE 1010,6 3,0 0,0
30.09.2020 07:00:00 10,4 10,3 - - 21 11 - - S 1010,7 3,0 0,0
30.09.2020 06:00:00 10,5 10,3 - - 13 7 - - S 1010,8 3,0 0,0
30.09.2020 05:00:00 10,3 10,1 - - 11 6 - - SSE 1011,2 5 0,0
30.09.2020 04:00:00 10,8 10,7 - - 15 8 - - SE 1011,5 10 0,0
30.09.2020 03:00:00 10,0 9,9 - - 9 5 - - SE 1012,7 12 0,0
30.09.2020 02:00:00 9,2 9,2 - - 9 5 - - SSE 1013,5 9 0,0
30.09.2020 01:00:00 8,8 8,7 - - 5 3 - - S 1013,7 0,3 0,0
30.09.2020 00:00:00 10,4 10,3 - - 8 4 - - SE 1014,2 15 0,0
29.09.2020 23:00:00 8,9 8,7 - - 4 2 - - S 1014,8 0,1 0,0
29.09.2020 22:00:00 9,1 8,9 - - 4 2 - - ESE 1015,2 0,2 0,0
29.09.2020 21:00:00 9,4 8,9 - - 4 2 - - SE 1015,3 0,7 -
29.09.2020 20:00:00 11,0 10,5 - - 5 3 - - SE 1015,3 4,0 0,0
29.09.2020 19:00:00 12,2 11,2 - - 0 0 - - N 1015,2 8 0,0
29.09.2020 18:00:00 13,1 11,8 - - 8 4 - - NNE 1015,2 10 -
29.09.2020 17:00:00 13,8 12,4 - - 13 7 - - NNW 1015,2 10 0,0
29.09.2020 16:00:00 13,7 12,9 - - 11 6 - - NNW 1015,1 10 0,0
29.09.2020 15:00:00 13,5 12,9 - - 13 7 - - N 1015,2 6 -
29.09.2020 14:00:00 13,6 13,3 - - 11 6 - - N 1015,4 3,0 0,6
29.09.2020 13:00:00 13,3 12,9 - - 15 8 - - N 1015,7 3,0 0,2
29.09.2020 12:00:00 13,0 12,8 - - 15 8 - - N 1015,6 3,5 1,0
29.09.2020 11:00:00 12,7 12,6 - - 5 3 - - N 1015,8 2,0 1,2
29.09.2020 10:00:00 12,3 12,1 13,7 14,7 5 3 - - NW 1015,5 2,0 1,4
29.09.2020 09:00:00 11,8 11,5 - - 4 2 - - NNE 1015,0 3,5 0,0
29.09.2020 08:00:00 11,2 10,9 - - 4 2 - - NNW 1014,8 8 0,0
29.09.2020 07:00:00 10,7 10,3 - - 2 1 - - E 1014,3 5 0,0
29.09.2020 06:00:00 10,6 10,2 - - 2 1 - - SE 1014,1 10 0,0
29.09.2020 05:00:00 10,5 9,9 - - 2 1 - - S 1014,1 5 0,2
29.09.2020 04:00:00 10,1 9,5 - - 4 2 - - SSE 1014,1 10 0,0
29.09.2020 03:00:00 9,5 8,8 - - 2 1 - - ESE 1014,1 18 0,0
29.09.2020 02:00:00 8,4 7,3 - - 4 2 - - SSE 1013,9 10 0,0
29.09.2020 01:00:00 8,8 7,7 - - 5 3 - - E 1013,7 10 0,0
29.09.2020 00:00:00 8,9 7,0 - - 5 3 - - SSE 1013,9 10 0,0
28.09.2020 23:00:00 8,0 5,7 - - 4 2 - - S 1013,8 10 0,0
28.09.2020 22:00:00 10,0 7,4 - - 2 1 - - S 1013,7 10 0,0
28.09.2020 21:00:00 11,3 7,2 - - 2 1 - - WSW 1013,4 10 0,0
28.09.2020 20:00:00 12,6 8,7 - - 2 1 - - S 1013,1 10 0,0
28.09.2020 19:00:00 13,4 7,3 - - 2 1 - - NNE 1012,6 10 0,0
28.09.2020 18:00:00 14,3 7,6 - - 4 2 - - NW 1012,2 10 0,0
28.09.2020 17:00:00 14,9 5,8 - - 11 6 - - WNW 1011,9 10 0,0
28.09.2020 16:00:00 15,6 5,6 - - 11 6 - - WNW 1011,8 10 0,0
28.09.2020 15:00:00 15,6 6,9 - - 11 6 - - NW 1012,0 20 0,0
28.09.2020 14:00:00 14,8 7,9 - - 15 8 - - WNW 1012,3 10 0,0
28.09.2020 13:00:00 13,9 8,6 - - 15 8 - - WNW 1012,3 10 0,0
28.09.2020 12:00:00 12,6 9,1 - - 11 6 - - NW 1012,4 10 0,0
28.09.2020 11:00:00 11,0 8,7 - - 13 7 - - WNW 1012,6 10 0,0
28.09.2020 10:00:00 10,9 8,4 13,4 14,7 16 9 - - WNW 1012,5 10 0,0
28.09.2020 09:00:00 10,3 8,2 - - 15 8 - - NW 1012,2 10 0,0
28.09.2020 08:00:00 10,1 8,6 - - 11 6 - - NW 1012,2 10 0,0
28.09.2020 07:00:00 9,4 7,8 - - 15 8 - - NW 1012,0 10 0,0
28.09.2020 06:00:00 9,7 8,5 - - 13 7 - - WNW 1011,8 10 0,0
28.09.2020 05:00:00 9,9 8,5 - - 18 10 - - NW 1011,8 10 0,0
28.09.2020 04:00:00 10,5 9,2 - - 16 9 - - NW 1012,2 10 0,0
28.09.2020 03:00:00 10,4 9,2 - - 15 8 - - NW 1012,6 22 0,0
28.09.2020 02:00:00 10,5 9,2 - - 18 10 - - NNW 1013,0 19 0,0
28.09.2020 01:00:00 10,6 9,2 - - 18 10 - - NW 1013,3 10 0,0
28.09.2020 00:00:00 10,7 9,6 - - 18 10 - - NNW 1013,2 10 0,0
27.09.2020 23:00:00 10,5 9,7 - - 26 14 - - NNW 1013,0 8 0,0
27.09.2020 22:00:00 10,6 9,8 - - 22 12 - - NNW 1013,3 10 0,0
27.09.2020 21:00:00 11,1 9,5 - - 24 13 - - NNW 1013,4 10 -
27.09.2020 20:00:00 11,4 9,5 - - 26 14 - - NNW 1013,0 10 0,0
27.09.2020 19:00:00 11,8 9,6 - - 26 14 - - NNW 1012,9 20 0,0
27.09.2020 18:00:00 11,9 9,7 - - 26 14 - - NNW 1012,6 19 -
27.09.2020 17:00:00 12,0 9,8 - - 29 16 48 26 NNW 1012,2 20 0,0
27.09.2020 16:00:00 12,0 10,1 - - 31 17 - - NNW 1012,4 16 0,0
27.09.2020 15:00:00 12,3 10,0 - - 31 17 48 26 NNW 1012,1 10 0,0
27.09.2020 14:00:00 12,1 10,1 - - 34 18 55 30 N 1012,1 17 0,0
27.09.2020 13:00:00 12,0 10,2 - - 34 18 48 26 N 1012,1 17 0,0
27.09.2020 12:00:00 11,6 10,5 - - 37 20 50 27 N 1011,5 8 0,0
27.09.2020 11:00:00 12,0 9,7 - - 35 19 57 31 N 1011,3 19 0,0
27.09.2020 10:00:00 11,7 10,0 - - 31 17 48 26 NNW 1011,1 10 -
27.09.2020 09:00:00 11,3 9,8 - - 29 16 50 27 NNW 1010,8 10 -
27.09.2020 08:00:00 10,9 9,8 - - 35 19 52 28 NNW 1010,1 9 0,0
27.09.2020 07:00:00 10,9 9,6 - - 37 20 55 30 N 1010,2 19 0,0
27.09.2020 06:00:00 10,5 9,6 - - 37 20 55 30 NNW 1009,8 3,6 -
27.09.2020 05:00:00 10,3 9,3 - - 34 18 65 35 N 1010,0 9 0,2
27.09.2020 04:00:00 10,6 8,6 - - 35 19 61 33 N 1010,2 19 0,0
27.09.2020 03:00:00 10,2 8,7 - - 39 21 59 32 N 1010,4 17 0,2
27.09.2020 02:00:00 10,5 8,8 - - 34 18 55 30 N 1010,6 19 0,2
27.09.2020 01:00:00 10,7 9,0 - - 31 17 54 29 NNW 1010,8 11 0,0
27.09.2020 00:00:00 11,0 8,0 - - 34 18 61 33 NNW 1011,1 20 0,0
26.09.2020 23:00:00 10,4 9,0 - - 29 16 54 29 NNW 1011,1 13 0,0
26.09.2020 22:00:00 10,9 8,9 - - 28 15 52 28 NNW 1011,2 10 -
26.09.2020 21:00:00 11,5 8,9 - - 31 17 52 28 NNW 1010,8 10 0,0
26.09.2020 20:00:00 11,3 9,2 - - 34 18 54 29 NNW 1010,6 10 0,2
26.09.2020 19:00:00 11,6 8,7 - - 34 18 48 26 NNW 1010,4 10 0,0
26.09.2020 18:00:00 11,4 9,2 - - 31 17 52 28 NNW 1010,1 13 0,0
26.09.2020 17:00:00 11,8 10,0 - - 35 19 52 28 NNW 1009,6 13 0,2
26.09.2020 16:00:00 10,8 10,0 - - 31 17 54 29 NNW 1009,3 11 0,8
26.09.2020 15:00:00 10,6 9,7 - - 35 19 59 32 NNW 1008,8 6 0,6
26.09.2020 14:00:00 10,5 9,6 - - 37 20 59 32 NNW 1008,5 11 0,6
26.09.2020 13:00:00 9,6 8,6 - - 37 20 59 32 NW 1008,5 4,0 0,0
26.09.2020 12:00:00 9,2 6,7 - - 41 22 61 33 NW 1008,2 3,5 0,0
26.09.2020 11:00:00 9,2 5,1 - - 37 20 57 31 NW 1008,2 26 0,0
26.09.2020 10:00:00 8,3 4,3 - - 34 18 50 27 NW 1008,0 30 0,0
26.09.2020 09:00:00 7,4 3,3 - - 31 17 54 29 NW 1007,8 30 0,0
26.09.2020 08:00:00 6,9 3,0 - - 34 18 54 29 NW 1007,7 29 0,0
26.09.2020 07:00:00 6,9 2,7 - - 34 18 50 27 NW 1007,4 29 0,0
26.09.2020 06:00:00 7,1 3,2 - - 31 17 54 29 NW 1007,2 27 0,0
26.09.2020 05:00:00 7,9 3,8 - - 34 18 48 26 NW 1006,8 25 0,0
26.09.2020 04:00:00 8,5 4,3 - - 28 15 50 27 NW 1006,6 24 0,0
26.09.2020 03:00:00 8,7 4,5 - - 34 18 52 28 NW 1006,5 23 0,0
26.09.2020 02:00:00 9,2 5,0 - - 35 19 55 30 NW 1006,2 21 0,0
26.09.2020 01:00:00 9,4 6,0 - - 39 21 68 37 NW 1006,0 21 0,0
26.09.2020 00:00:00 9,4 6,3 - - 44 24 68 37 NW 1005,9 19 0,2
25.09.2020 23:00:00 9,8 6,6 - - 44 24 65 35 NW 1005,3 22 0,0
25.09.2020 22:00:00 9,7 6,7 - - 44 24 65 35 NW 1005,0 27 0,0
25.09.2020 21:00:00 10,3 6,6 - - 41 22 63 34 NW 1004,4 29 -
25.09.2020 20:00:00 10,6 5,5 - - 39 21 74 40 NW 1003,8 10 0,0
25.09.2020 19:00:00 11,3 4,4 - - 46 25 78 42 NW 1003,0 26 0,0
25.09.2020 18:00:00 10,7 6,7 - - 44 24 80 43 NW 1002,2 20 -
25.09.2020 17:00:00 11,0 6,5 - - 52 28 87 47 NW 1001,6 24 0,2
25.09.2020 16:00:00 10,2 7,8 - - 46 25 78 42 NW 1000,7 10 0,6
25.09.2020 15:00:00 10,3 7,5 - - 48 26 72 39 WNW 999,6 10 0,4
25.09.2020 14:00:00 10,2 8,0 - - 46 25 70 38 WNW 998,8 19 2,0
25.09.2020 13:00:00 9,3 7,9 - - 46 25 65 35 WNW 998,0 7 2,8
25.09.2020 12:00:00 8,9 7,5 - - 44 24 70 38 NW 997,8 7 2,4
25.09.2020 11:00:00 8,9 7,7 - - 44 24 65 35 WNW 997,0 4,0 0,6
25.09.2020 10:00:00 9,1 7,5 14,7 15,5 39 21 59 32 WNW 996,1 10 0,6
25.09.2020 09:00:00 8,5 7,7 - - 34 18 59 32 NW 995,7 7 1,8
25.09.2020 08:00:00 8,8 8,3 - - 24 13 52 28 NW 994,5 1,6 -
25.09.2020 07:00:00 9,0 8,1 - - 29 16 - - NW 994,2 5 3,0
25.09.2020 06:00:00 8,8 8,3 - - 31 17 - - WNW 993,7 6 1,6
25.09.2020 05:00:00 8,3 7,6 - - 24 13 - - WNW 993,7 6 2,4
25.09.2020 04:00:00 8,4 7,5 - - 16 9 - - NW 993,7 5 3,8
25.09.2020 03:00:00 9,0 8,4 - - 13 7 - - WNW 993,6 8 1,8
25.09.2020 02:00:00 9,0 8,1 - - 13 7 - - NW 993,6 14 0,8
25.09.2020 01:00:00 9,5 8,7 - - 9 5 - - WNW 993,5 6 0,4
25.09.2020 00:00:00 9,4 8,5 - - 4 2 - - NNW 993,3 10 0,6
24.09.2020 23:00:00 9,6 8,4 - - 4 2 - - E 993,6 10 0,0

tt = temperature
td = dewpoint
tt -20cm = temperature -20cm
tt -100cm = temperature -100cm
ff = wind speed
fx = gusts
dd = wind direction
ppp = reduced air pressure
vv = visibility
rr = precipitation

Next stations